Location: Newark
(49.8969°N, 3.3422°E)
Time: 15:23:02
(UTC+00:00)

Tiros 1 - Pass Details

Date: 09 May 2021
Orbit: 630 x 664 km, 48.4° (Epoch: 11 June)

Event Time Altitude Azimuth Distance (km) Brightness Sun altitude
Exits shadow 02:42:31 17° 224° (SW) 1,629 8.5 -12.0°
Maximum altitude 02:45:51 46° 157° (SSE) 881 7.7 -11.6°
Drops below altitude 10° 02:50:22 10° 85° (E) 2,052 10.5 -11.1°
Sets 02:52:46 0° 79° (E) 2,958 11.6 -10.8°
